User: anonymous   Login
Location: Unspecified
(0.0000°N, 0.0000°E)
Time: 16:36:42
(UTC+00:00)
Language:

COSMOS 2482 - Orbit

View from above orbital plane
View from above orbital plane
View from above satellite
View from above satellite

Ground track
Ground track

The orbit data is extracted from the following two-line orbital elements,

1 39057U 13001A   17204.91956140 +.00000044 +00000-0 +24515-3 0  9996
2 39057 082.4988 082.2546 0026339 276.0663 083.7408 12.42886637205009
Epoch (UTC): 23 July 2017 22:04:10
Eccentricity: 0.0026339
inclination: 82.4988°
perigee height: 1473 km
apogee height: 1515 km
right ascension of ascending node: 82.2546°
argument of perigee: 276.0663°
revolutions per day: 12.42886637
mean anomaly at epoch: 83.7408°
orbit number at epoch: 20500

The dashed part of the orbit path shows where the satellite is in the earth's shadow,  

DLR